SCP
0 0 0 0 0 0 0 0 0 0 0 0 0 1 1 1 2 2 1 1 1 1 1 1 1 1 1 1 0 0 1 1 1 1 1 0 1 1 0 0 0 0 0
0 0 0 0 0 0 0 0 0 0 0 0 0 0 0 1 1 2 2 2 1 1 1 1 1 1 1 1 1 1 0 1 1 1 1 1 1 1 1 1 1 0 0
0 0 0 0 0 0 0 0 0 0 0 0 0 0 0 1 1 1 1 1 1 1 1 1 1 1 1 1 1 1 1 1 1 1 1 1 1 1 1 1 1 1 1
0 0 0 0 0 0 0 0 0 0 0 0 0 1 1 0 0 0 0 1 1 -0 0 0 0 1 0 0 1 1 1 1 1 1 1 1 1 1 1 1 1 1 1
0 0 0 0 0 0 0 0 0 0 0 0 0 0 0 0 1 0 0 0 0 0 -0 -0 0 1 1 1 1 1 1 1 1 1 1 1 1 1 1 1 1 1 1
0 0 0 0 0 0 0 0 0 0 0 0 0 0 0 0 0 0 0 1 0 1 1 -0 -0 0 1 1 1 1 1 1 1 1 1 1 1 1 1 1 1 1 1
0 0 0 0 0 0 0 0 0 0 0 0 0 0 0 0 0 0 0 1 0 0 0 -0 -0 0 1 1 1 1 1 1 1 1 1 1 1 1 1 1 1 1 1
0 0 0 0 0 0 0 0 0 0 0 0 0 0 0 0 0 0 0 0 0 1 0 0 0 0 1 1 1 1 1 0 1 1 1 1 1 1 1 1 1 1 2
0 0 0 0 0 0 0 0 0 0 0 0 0 0 0 0 0 0 0 0 0 0 0 0 0 0 0 1 1 1 1 1 1 1 1 2 1 1 1 1 1 1 1
0 0 0 0 0 0 0 0 0 0 0 0 0 0 0 0 0 0 0 0 0 0 0 0 0 0 0 0 0 1 1 1 1 1 1 2 1 1 1 1 1 0 1
0 0 0 0 0 0 0 0 0 0 -0 0 0 0 0 0 0 0 0 0 0 0 0 0 0 0 0 0 0 0 0 0 0 0 0 1 1 1 1 1 0 1 1
0 0 0 0 0 0 0 0 0 0 0 0 0 0 0 0 0 0 0 0 0 0 0 0 0 0 0 0 0 0 0 0 0 0 0 0 0 0 0 0 0 0 0
0 0 0 0 0 0 0 0 -0 -0 -0 0 0 0 0 0 0 0 0 0 0 0 0 0 0 0 0 0 0 0 0 0 0 0 0 0 0 0 0 0 0 0 1
0 0 0 0 0 0 0 -0 -0 -0 0 0 0 0 0 0 0 0 0 0 0 0 0 0 0 0 0 0 0 0 0 0 0 0 0 0 0 0 0 0 0 0 0
0 0 0 0 0 0 0 0 -0 -0 -0 0 0 0 0 0 0 0 0 0 0 0 0 0 0 0 0 0 0 0 0 0 0 0 0 0 0 0 0 0 0 0 0
0 0 0 0 0 0 0 0 0 -0 -0 -0 0 0 0 0 0 0 0 0 0 0 0 0 0 0 0 0 0 0 0 0 0 0 0 0 0 0 0 0 0 0 0
0 0 0 0 0 0 0 0 0 0 -0 -0 -0 -0 0 0 0 0 0 0 0 0 0 0 0 0 0 0 0 0 0 0 0 0 0 0 0 0 0 0 0 0 0
0 0 0 0 0 0 0 0 0 0 0 -0 -0 -0 -0 0 0 0 0 0 0 0 0 0 0 0 0 0 0 0 0 0 0 0 0 0 0 0 0 0 0 0 0
0 0 0 0 0 0 0 0 0 0 0 -0 0 -0 -0 -0 -0 0 0 0 0 0 0 0 0 0 0 0 0 0 0 0 0 0 0 0 0 0 0 0 0 0 0
0 0 0 0 0 0 0 0 0 0 0 0 0 0 -0 -0 -0 -0 0 0 0 0 0 0 0 0 0 0 0 0 0 0 0 0 0 0 0 0 0 0 0 0 0
0 0 0 0 0 0 0 0 0 0 0 0 -0 0 -0 -0 -0 -0 0 0 0 0 0 0 0 0 0 0 0 0 0 0 0 0 0 0 0 0 0 0 0 0 0
0 0 0 0 0 0 0 0 0 0 0 0 -0 0 -0 -0 -0 -0 -0 -0 -0 0 0 0 0 0 0 0 0 0 0 0 0 0 0 0 0 0 0 0 0 0 0
0 0 0 0 0 0 0 0 0 0 0 0 0 -0 0 -0 -0 -0 -0 -0 -0 -0 -0 0 0 0 0 0 -0 -0 0 0 0 0 0 0 0 0 0 0 0 0 0
0 0 0 0 0 0 0 0 0 0 0 0 0 0 -0 -0 -0 -0 -0 -0 -0 -0 -0 0 0 0 0 -0 -0 0 0 0 0 0 0 0 0 0 0 0 0 0 0
0 0 0 0 0 0 0 0 0 0 0 0 0 0 0 0 -0 -0 -0 -0 -0 0 0 0 0 0 0 0 0 0 0 0 0 0 0 0 0 0 0 0 0 0 0
0 0 0 0 0 0 0 0 0 0 0 0 0 0 0 0 0 -0 -0 -0 -0 -0 0 0 0 0 0 0 0 0 0 0 0 0 0 0 0 0 0 0 0 0 0
Wind_Speed_500mb
63 58 51 47 45 44 39 36 36 36 42 55 70 55 65 69 64 57 55 65 70 68 68 67 69 73 76 76 73 72 72 72 72 74 72 72 67 63 61 58 55 55 55
60 54 52 52 51 49 48 46 42 41 37 39 50 55 50 50 60 64 63 54 68 70 70 66 63 66 76 81 78 73 71 69 69 74 79 78 75 71 67 64 62 61 59
53 53 47 46 49 51 47 47 49 48 47 44 47 47 50 45 59 68 63 64 58 56 65 69 65 64 66 72 76 75 73 71 71 66 76 83 80 76 72 72 70 67 64
54 48 51 47 46 48 48 44 43 50 52 53 49 49 54 57 57 62 75 86 78 78 79 69 68 66 67 62 66 69 72 69 62 59 61 69 77 80 78 76 75 74 71
60 55 46 43 43 40 42 40 36 38 45 52 54 53 54 57 57 54 67 70 98 120 106 97 85 71 68 71 66 69 68 67 65 63 60 60 64 72 80 80 78 78 77
62 54 43 37 34 31 35 35 35 31 33 39 44 45 51 51 51 50 51 62 73 92 117 91 93 82 81 74 68 66 68 68 64 64 65 65 68 67 74 82 85 82 81
49 43 40 33 31 29 34 35 37 39 37 30 36 37 39 46 46 45 45 52 56 76 81 84 93 94 85 81 80 85 72 72 75 73 71 71 75 74 78 82 84 88 86
43 40 38 36 34 27 27 31 33 39 37 26 26 30 27 27 36 39 45 48 55 54 56 77 73 63 79 75 87 84 84 79 80 82 80 82 82 81 83 84 87 90 89
44 43 35 35 32 31 29 28 28 33 38 34 18 22 13 13 14 13 14 18 25 30 39 47 59 60 56 64 76 78 75 91 77 75 76 77 78 79 80 82 83 87 88
41 44 39 32 34 32 32 30 29 33 34 34 27 14 23 36 21 16 10 6 4 5 7 14 21 27 29 36 45 62 75 68 76 70 65 72 74 75 76 74 73 73 81
39 42 38 34 32 36 37 40 40 32 31 29 29 29 21 17 23 20 19 18 11 8 5 9 13 22 28 34 34 38 47 54 58 60 69 67 68 69 71 75 80 82 87
48 46 39 38 37 35 40 39 37 38 32 25 21 19 15 10 11 9 13 17 11 10 8 12 12 9 18 27 35 39 41 43 44 46 50 52 54 58 61 66 66 73 79
58 43 44 41 42 41 42 42 40 42 42 33 28 24 19 11 6 5 8 13 12 10 7 6 8 6 1 7 15 21 25 30 31 33 37 40 41 42 44 47 57 70 66
60 47 42 40 40 40 39 41 42 40 39 39 34 27 27 22 11 3 4 7 8 9 5 3 6 6 2 9 15 14 23 18 19 19 20 21 21 22 22 16 24 23 14
48 51 43 39 37 37 38 37 37 40 37 37 35 32 27 24 18 9 4 6 10 5 3 3 3 3 3 10 6 18 14 13 11 12 13 15 17 19 20 20 18 13 5
39 36 36 38 38 39 42 33 36 36 39 34 33 35 28 25 20 15 8 7 11 11 4 3 3 3 5 13 11 20 23 39 22 27 33 34 37 35 32 30 26 21 19
40 37 41 40 36 42 46 44 33 35 33 35 36 37 30 28 27 16 10 9 9 11 8 6 7 7 5 13 21 29 32 29 39 49 42 37 31 28 28 28 22 18 13
46 40 38 37 38 42 40 44 45 41 34 32 36 37 28 29 25 18 17 11 7 7 14 18 18 21 23 26 22 23 25 34 34 24 40 35 28 25 22 20 19 17 10
43 42 40 42 42 44 51 49 44 41 35 32 32 35 33 33 36 27 26 22 8 11 24 27 30 32 31 29 31 36 31 15 26 26 24 30 28 24 22 19 10 6 8
47 48 45 46 43 38 45 48 41 37 37 33 27 32 33 32 33 34 25 34 7 12 29 36 40 42 36 32 31 29 29 29 28 22 21 25 22 24 24 20 13 7 2
44 47 49 45 57 42 45 48 46 37 42 33 36 28 37 33 33 30 31 33 21 20 30 46 47 41 34 30 31 28 35 34 32 31 29 32 25 25 22 14 11 8 4
44 49 51 52 52 50 42 44 49 40 37 37 36 29 29 35 31 35 28 24 22 33 33 32 32 27 29 27 27 29 32 29 30 24 19 27 24 24 22 21 18 11 7
39 45 52 52 49 48 44 47 44 40 39 38 36 32 31 29 27 26 28 29 27 30 25 20 20 15 21 21 22 20 15 14 18 20 17 17 22 19 21 20 18 10 9
38 40 42 47 52 56 49 41 40 41 39 33 33 32 30 28 24 24 22 26 27 27 24 17 12 13 14 13 15 15 5 8 14 14 6 11 14 16 19 16 13 11 12
34 39 40 43 45 50 53 49 46 34 37 36 39 28 28 24 23 22 18 19 24 25 22 20 18 17 15 10 12 10 8 13 12 10 4 4 4 8 11 15 14 12 14
33 37 39 42 46 50 49 48 45 40 34 36 36 36 33 20 22 21 17 15 19 23 21 20 17 11 11 11 13 13 9 4 5 8 4 3 8 2 3 14 12 11 13
Wind_Direction_500mb
328 325 316 307 302 293 290 286 286 286 277 252 247 254 248 244 237 236 241 246 245 244 243 246 247 244 242 242 240 241 243 245 245 244 243 241 243 246 252 255 257 257 258
329 325 319 312 306 296 283 276 271 269 266 270 246 246 254 250 245 243 243 245 247 247 245 245 248 250 245 244 243 241 241 240 242 244 243 243 243 245 248 253 257 259 260
332 332 328 319 313 306 299 285 274 266 263 259 254 255 259 256 253 250 248 247 247 255 254 246 249 250 249 247 244 239 237 238 241 242 243 239 242 245 248 251 253 257 260
341 334 327 327 319 314 310 300 286 273 262 259 262 260 262 261 260 259 258 248 248 265 264 258 251 247 247 245 238 236 237 235 234 236 238 239 240 243 246 250 251 253 256
345 342 335 325 321 320 316 315 306 294 277 264 260 262 264 264 265 264 258 257 253 251 252 259 257 256 253 245 241 242 239 236 238 241 242 242 242 243 243 245 248 250 252
342 346 346 338 329 323 325 328 323 319 305 286 273 263 259 260 262 264 266 262 250 246 243 254 259 256 253 246 237 239 240 240 244 249 250 254 251 249 247 246 249 250 251
348 351 351 351 349 342 335 329 325 328 327 321 286 274 270 259 260 264 268 262 253 245 243 254 258 259 248 244 241 240 244 246 250 251 254 255 255 258 256 252 251 248 246
359 0 359 360 354 350 341 333 335 338 329 326 302 284 289 276 262 256 255 251 250 248 243 241 252 245 243 245 242 241 242 249 252 252 253 258 259 258 259 257 255 252 244
3 5 8 5 353 352 347 349 343 348 343 330 290 266 283 257 299 252 249 244 241 238 239 237 238 240 238 241 241 237 245 246 253 255 255 254 252 252 255 255 255 252 245
358 1 7 10 2 358 355 354 353 350 343 344 338 259 250 256 273 280 265 189 213 217 225 237 245 249 241 238 240 238 245 245 246 249 252 258 254 253 250 251 251 249 248
5 1 10 12 4 3 5 4 3 353 344 349 350 328 273 275 260 264 276 261 264 276 296 287 262 248 248 244 244 243 246 245 243 248 248 252 254 255 255 254 255 254 255
11 10 23 16 9 7 6 5 2 7 355 355 355 355 329 320 297 286 291 295 285 272 327 338 330 293 250 240 236 240 244 246 246 248 249 249 252 254 255 255 255 255 256
14 21 17 16 17 14 13 8 8 8 8 3 2 4 3 330 327 287 263 281 297 294 298 309 357 350 125 219 220 230 244 250 243 242 243 242 243 245 247 250 248 250 256
21 22 21 16 13 11 8 6 7 9 7 11 10 1 1 359 356 294 268 287 282 272 246 260 304 262 24 225 197 225 216 225 225 216 218 218 223 230 231 230 239 225 142
17 34 32 28 22 17 14 11 6 10 8 8 8 6 358 352 341 323 296 258 252 257 193 100 210 160 318 219 218 237 232 199 189 192 186 178 168 161 155 148 131 162 167
13 13 14 15 18 19 9 4 7 5 11 12 10 9 4 1 353 349 324 283 259 245 199 251 281 333 232 224 188 179 187 170 179 169 161 158 147 143 141 136 135 132 128
12 9 15 16 17 14 13 16 8 6 5 10 10 13 12 7 3 359 329 288 258 240 200 138 182 156 178 159 163 158 159 124 163 161 166 160 153 143 139 136 133 126 122
21 18 16 15 20 12 17 22 20 15 13 13 7 9 20 14 7 8 359 325 252 220 187 186 145 137 132 124 126 124 120 109 124 115 130 157 154 160 156 154 151 152 171
21 20 23 24 22 23 21 16 22 18 17 14 14 22 12 15 24 16 19 8 338 192 186 184 155 141 126 120 113 113 107 118 107 101 93 104 123 134 142 135 135 143 186
28 37 36 26 22 21 18 18 15 22 23 24 25 28 22 22 25 25 35 24 30 155 180 174 153 137 130 124 115 110 99 104 102 99 103 101 95 97 89 90 101 103 128
29 27 25 24 27 22 20 20 20 28 27 20 25 38 35 33 34 33 49 49 80 120 152 146 134 127 117 123 117 114 113 106 99 97 104 102 97 88 93 81 63 66 78
26 27 24 24 25 25 23 18 22 24 21 26 27 25 34 34 42 41 49 64 72 103 107 122 119 115 116 119 119 118 120 115 107 108 93 93 81 70 65 54 48 42 46
24 24 23 24 22 22 14 18 20 21 26 29 30 33 36 40 44 49 48 60 69 84 95 110 117 126 139 133 132 130 138 135 136 128 111 96 76 71 55 45 35 37 36
23 23 22 22 22 18 17 17 18 21 27 31 28 26 31 33 48 58 57 70 76 79 81 79 107 119 128 136 151 161 176 205 146 137 101 73 65 58 40 42 44 48 61
22 15 13 10 15 25 13 17 18 22 27 26 27 25 22 38 39 53 58 69 71 86 77 85 95 110 126 131 154 155 162 167 161 163 90 102 110 77 53 49 56 65 61
5 5 10 14 15 17 16 10 15 22 22 27 29 32 26 45 41 45 62 65 74 68 64 59 61 89 122 138 149 150 144 132 159 182 213 158 196 204 65 64 89 90 79
Wind_Speed_850mb
63 58 51 47 45 44 39 36 36 36 42 55 70 55 65 69 64 57 55 65 70 68 68 67 69 73 76 76 73 72 72 72 72 74 72 72 67 63 61 58 55 55 55
60 54 52 52 51 49 48 46 42 41 37 39 50 55 50 50 60 64 63 54 68 70 70 66 63 66 76 81 78 73 71 69 69 74 79 78 75 71 67 64 62 61 59
53 53 47 46 49 51 47 47 49 48 47 44 47 47 50 45 59 68 63 64 58 56 65 69 65 64 66 72 76 75 73 71 71 66 76 83 80 76 72 72 70 67 64
54 48 51 47 46 48 48 44 43 50 52 53 49 49 54 57 57 62 75 86 78 78 79 69 68 66 67 62 66 69 72 69 62 59 61 69 77 80 78 76 75 74 71
60 55 46 43 43 40 42 40 36 38 45 52 54 53 54 57 57 54 67 70 98 120 106 97 85 71 68 71 66 69 68 67 65 63 60 60 64 72 80 80 78 78 77
62 54 43 37 34 31 35 35 35 31 33 39 44 45 51 51 51 50 51 62 73 92 117 91 93 82 81 74 68 66 68 68 64 64 65 65 68 67 74 82 85 82 81
49 43 40 33 31 29 34 35 37 39 37 30 36 37 39 46 46 45 45 52 56 76 81 84 93 94 85 81 80 85 72 72 75 73 71 71 75 74 78 82 84 88 86
43 40 38 36 34 27 27 31 33 39 37 26 26 30 27 27 36 39 45 48 55 54 56 77 73 63 79 75 87 84 84 79 80 82 80 82 82 81 83 84 87 90 89
44 43 35 35 32 31 29 28 28 33 38 34 18 22 13 13 14 13 14 18 25 30 39 47 59 60 56 64 76 78 75 91 77 75 76 77 78 79 80 82 83 87 88
41 44 39 32 34 32 32 30 29 33 34 34 27 14 23 36 21 16 10 6 4 5 7 14 21 27 29 36 45 62 75 68 76 70 65 72 74 75 76 74 73 73 81
39 42 38 34 32 36 37 40 40 32 31 29 29 29 21 17 23 20 19 18 11 8 5 9 13 22 28 34 34 38 47 54 58 60 69 67 68 69 71 75 80 82 87
48 46 39 38 37 35 40 39 37 38 32 25 21 19 15 10 11 9 13 17 11 10 8 12 12 9 18 27 35 39 41 43 44 46 50 52 54 58 61 66 66 73 79
58 43 44 41 42 41 42 42 40 42 42 33 28 24 19 11 6 5 8 13 12 10 7 6 8 6 1 7 15 21 25 30 31 33 37 40 41 42 44 47 57 70 66
60 47 42 40 40 40 39 41 42 40 39 39 34 27 27 22 11 3 4 7 8 9 5 3 6 6 2 9 15 14 23 18 19 19 20 21 21 22 22 16 24 23 14
48 51 43 39 37 37 38 37 37 40 37 37 35 32 27 24 18 9 4 6 10 5 3 3 3 3 3 10 6 18 14 13 11 12 13 15 17 19 20 20 18 13 5
39 36 36 38 38 39 42 33 36 36 39 34 33 35 28 25 20 15 8 7 11 11 4 3 3 3 5 13 11 20 23 39 22 27 33 34 37 35 32 30 26 21 19
40 37 41 40 36 42 46 44 33 35 33 35 36 37 30 28 27 16 10 9 9 11 8 6 7 7 5 13 21 29 32 29 39 49 42 37 31 28 28 28 22 18 13
46 40 38 37 38 42 40 44 45 41 34 32 36 37 28 29 25 18 17 11 7 7 14 18 18 21 23 26 22 23 25 34 34 24 40 35 28 25 22 20 19 17 10
43 42 40 42 42 44 51 49 44 41 35 32 32 35 33 33 36 27 26 22 8 11 24 27 30 32 31 29 31 36 31 15 26 26 24 30 28 24 22 19 10 6 8
47 48 45 46 43 38 45 48 41 37 37 33 27 32 33 32 33 34 25 34 7 12 29 36 40 42 36 32 31 29 29 29 28 22 21 25 22 24 24 20 13 7 2
44 47 49 45 57 42 45 48 46 37 42 33 36 28 37 33 33 30 31 33 21 20 30 46 47 41 34 30 31 28 35 34 32 31 29 32 25 25 22 14 11 8 4
44 49 51 52 52 50 42 44 49 40 37 37 36 29 29 35 31 35 28 24 22 33 33 32 32 27 29 27 27 29 32 29 30 24 19 27 24 24 22 21 18 11 7
39 45 52 52 49 48 44 47 44 40 39 38 36 32 31 29 27 26 28 29 27 30 25 20 20 15 21 21 22 20 15 14 18 20 17 17 22 19 21 20 18 10 9
38 40 42 47 52 56 49 41 40 41 39 33 33 32 30 28 24 24 22 26 27 27 24 17 12 13 14 13 15 15 5 8 14 14 6 11 14 16 19 16 13 11 12
34 39 40 43 45 50 53 49 46 34 37 36 39 28 28 24 23 22 18 19 24 25 22 20 18 17 15 10 12 10 8 13 12 10 4 4 4 8 11 15 14 12 14
33 37 39 42 46 50 49 48 45 40 34 36 36 36 33 20 22 21 17 15 19 23 21 20 17 11 11 11 13 13 9 4 5 8 4 3 8 2 3 14 12 11 13
Wind_Direction_850mb
328 325 316 307 302 293 290 286 286 286 277 252 247 254 248 244 237 236 241 246 245 244 243 246 247 244 242 242 240 241 243 245 245 244 243 241 243 246 252 255 257 257 258
329 325 319 312 306 296 283 276 271 269 266 270 246 246 254 250 245 243 243 245 247 247 245 245 248 250 245 244 243 241 241 240 242 244 243 243 243 245 248 253 257 259 260
332 332 328 319 313 306 299 285 274 266 263 259 254 255 259 256 253 250 248 247 247 255 254 246 249 250 249 247 244 239 237 238 241 242 243 239 242 245 248 251 253 257 260
341 334 327 327 319 314 310 300 286 273 262 259 262 260 262 261 260 259 258 248 248 265 264 258 251 247 247 245 238 236 237 235 234 236 238 239 240 243 246 250 251 253 256
345 342 335 325 321 320 316 315 306 294 277 264 260 262 264 264 265 264 258 257 253 251 252 259 257 256 253 245 241 242 239 236 238 241 242 242 242 243 243 245 248 250 252
342 346 346 338 329 323 325 328 323 319 305 286 273 263 259 260 262 264 266 262 250 246 243 254 259 256 253 246 237 239 240 240 244 249 250 254 251 249 247 246 249 250 251
348 351 351 351 349 342 335 329 325 328 327 321 286 274 270 259 260 264 268 262 253 245 243 254 258 259 248 244 241 240 244 246 250 251 254 255 255 258 256 252 251 248 246
359 0 359 360 354 350 341 333 335 338 329 326 302 284 289 276 262 256 255 251 250 248 243 241 252 245 243 245 242 241 242 249 252 252 253 258 259 258 259 257 255 252 244
3 5 8 5 353 352 347 349 343 348 343 330 290 266 283 257 299 252 249 244 241 238 239 237 238 240 238 241 241 237 245 246 253 255 255 254 252 252 255 255 255 252 245
358 1 7 10 2 358 355 354 353 350 343 344 338 259 250 256 273 280 265 189 213 217 225 237 245 249 241 238 240 238 245 245 246 249 252 258 254 253 250 251 251 249 248
5 1 10 12 4 3 5 4 3 353 344 349 350 328 273 275 260 264 276 261 264 276 296 287 262 248 248 244 244 243 246 245 243 248 248 252 254 255 255 254 255 254 255
11 10 23 16 9 7 6 5 2 7 355 355 355 355 329 320 297 286 291 295 285 272 327 338 330 293 250 240 236 240 244 246 246 248 249 249 252 254 255 255 255 255 256
14 21 17 16 17 14 13 8 8 8 8 3 2 4 3 330 327 287 263 281 297 294 298 309 357 350 125 219 220 230 244 250 243 242 243 242 243 245 247 250 248 250 256
21 22 21 16 13 11 8 6 7 9 7 11 10 1 1 359 356 294 268 287 282 272 246 260 304 262 24 225 197 225 216 225 225 216 218 218 223 230 231 230 239 225 142
17 34 32 28 22 17 14 11 6 10 8 8 8 6 358 352 341 323 296 258 252 257 193 100 210 160 318 219 218 237 232 199 189 192 186 178 168 161 155 148 131 162 167
13 13 14 15 18 19 9 4 7 5 11 12 10 9 4 1 353 349 324 283 259 245 199 251 281 333 232 224 188 179 187 170 179 169 161 158 147 143 141 136 135 132 128
12 9 15 16 17 14 13 16 8 6 5 10 10 13 12 7 3 359 329 288 258 240 200 138 182 156 178 159 163 158 159 124 163 161 166 160 153 143 139 136 133 126 122
21 18 16 15 20 12 17 22 20 15 13 13 7 9 20 14 7 8 359 325 252 220 187 186 145 137 132 124 126 124 120 109 124 115 130 157 154 160 156 154 151 152 171
21 20 23 24 22 23 21 16 22 18 17 14 14 22 12 15 24 16 19 8 338 192 186 184 155 141 126 120 113 113 107 118 107 101 93 104 123 134 142 135 135 143 186
28 37 36 26 22 21 18 18 15 22 23 24 25 28 22 22 25 25 35 24 30 155 180 174 153 137 130 124 115 110 99 104 102 99 103 101 95 97 89 90 101 103 128
29 27 25 24 27 22 20 20 20 28 27 20 25 38 35 33 34 33 49 49 80 120 152 146 134 127 117 123 117 114 113 106 99 97 104 102 97 88 93 81 63 66 78
26 27 24 24 25 25 23 18 22 24 21 26 27 25 34 34 42 41 49 64 72 103 107 122 119 115 116 119 119 118 120 115 107 108 93 93 81 70 65 54 48 42 46
24 24 23 24 22 22 14 18 20 21 26 29 30 33 36 40 44 49 48 60 69 84 95 110 117 126 139 133 132 130 138 135 136 128 111 96 76 71 55 45 35 37 36
23 23 22 22 22 18 17 17 18 21 27 31 28 26 31 33 48 58 57 70 76 79 81 79 107 119 128 136 151 161 176 205 146 137 101 73 65 58 40 42 44 48 61
22 15 13 10 15 25 13 17 18 22 27 26 27 25 22 38 39 53 58 69 71 86 77 85 95 110 126 131 154 155 162 167 161 163 90 102 110 77 53 49 56 65 61
5 5 10 14 15 17 16 10 15 22 22 27 29 32 26 45 41 45 62 65 74 68 64 59 61 89 122 138 149 150 144 132 159 182 213 158 196 204 65 64 89 90 79